This demonstration page uses our WeatherBlox Daily Observations layout. Learn more.

Left ArrowRight Arrow

38.89511, -77.03637

Hourly Observations for March 11, 2021

Temp ( °F °C ) Dew Point ( °F °C ) Humidity (%) Winds ( mph kmh ) Pressure ( in mb ) Visibility ( mi km ) Precip ( " mm )
12:52 am 00:52 Mostly Cloudy 53 11.7 39 3.9 59 59 S 10 17 30.31 1026 10 16.0934 0 0
1:52 am 01:52 Cloudy 55 12.8 34 1.1 45 45 S 8 13 30.3 1026 10 16.0934 0 0
2:52 am 02:52 Cloudy 54 12.2 35 1.7 49 49 S 9 15 30.29 1026 10 16.0934 0 0
3:52 am 03:52 Cloudy 54 12.2 36 2.2 51 51 S 10 17 30.28 1025 10 16.0934 0 0
4:52 am 04:52 Mostly Cloudy 53 11.7 35 1.7 51 51 S 8 13 30.29 1026 10 16.0934 0 0
5:52 am 05:52 Mostly Cloudy 54 12.2 34 1.1 47 47 SSW 8 13 30.3 1026 10 16.0934 0 0
6:52 am 06:52 Mostly Cloudy 54 12.2 34 1.1 47 47 SW 7 11 30.32 1027 10 16.0934 0 0
7:52 am 07:52 Mostly Cloudy 55 12.8 38 3.3 53 53 S 6 9 30.33 1027 10 16.0934 0 0
8:52 am 08:52 Partly Cloudy 58 14.4 38 3.3 48 48 S 8 13 30.32 1027 10 16.0934 0 0
9:52 am 09:52 Mostly Cloudy 61 16.1 39 3.9 44 44 S 12 19 30.31 1026 10 16.0934 0 0
10:52 am 10:52 Mostly Sunny 65 18.3 39 3.9 39 39 SSE 13 20 30.28 1025 10 16.0934 0 0
11:52 am 11:52 Mostly Cloudy 68 20 39 3.9 35 35 SSE 13 20 30.24 1024 10 16.0934 0 0
12:52 pm 12:52 Partly Cloudy 73 22.8 39 3.9 29 29 S 13 20 30.21 1023 10 16.0934 0 0
1:52 pm 13:52 Mostly Sunny 75 23.9 38 3.3 26 26 S 16 26 30.16 1022 10 16.0934 0 0
2:52 pm 14:52 Partly Cloudy 78 25.6 33 0.6 19 19 S 17 28 30.14 1021 10 16.0934 0 0
3:52 pm 15:52 Partly Cloudy 78 25.6 31 -0.6 18 18 SSW 17 28 30.13 1020 10 16.0934 0 0
4:52 pm 16:52 Partly Cloudy 77 25 33 0.6 20 20 S 15 24 30.12 1020 10 16.0934 0 0
5:52 pm 17:52 Mostly Cloudy 74 23.3 34 1.1 23 23 SSW 14 22 30.12 1020 10 16.0934 0 0
6:52 pm 18:52 Mostly Cloudy 72 22.2 35 1.7 26 26 SSW 12 19 30.15 1021 10 16.0934 0 0
7:52 pm 19:52 Mostly Cloudy 65 18.3 40 4.4 40 40 S 10 17 30.14 1021 10 16.0934 0 0
8:52 pm 20:52 Mostly Cloudy 69 20.6 39 3.9 33 33 SSW 14 22 30.14 1021 10 16.0934 0 0
9:52 pm 21:52 Cloudy 67 19.4 40 4.4 37 37 SW 5 7 30.15 1021 10 16.0934 0 0
10:52 pm 22:52 Cloudy 62 16.7 42 5.6 48 48 S 10 17 30.15 1021 10 16.0934 0 0
11:52 pm 23:52 Mostly Cloudy 59 15 44 6.7 58 58 S 9 15 30.14 1021 10 16.0934 0 0

Powered by AerisWeather